GFSMA_prec_pwat_336.txt.gz
Precipitable_Water
1.56 1.51 1.60 1.64 1.71 1.72 1.67 1.60 1.63 1.68 1.78 1.82 1.87 2.00 2.08 2.11 2.03 2.05 2.17 2.22 2.20 2.27 2.32 2.38 2.40 2.43 2.41 2.39 2.43 2.42 2.45 2.44 2.39 2.35 2.31 2.27 2.26 2.23 2.25 2.25 2.25 2.24 2.12
1.67 1.67 1.76 1.79 1.73 1.70 1.72 1.68 1.73 1.86 1.91 1.97 2.03 2.12 2.08 2.03 1.94 1.88 2.16 2.15 2.15 2.20 2.22 2.26 2.36 2.34 2.23 2.25 2.37 2.43 2.39 2.44 2.42 2.46 2.41 2.31 2.32 2.29 2.34 2.29 2.29 2.28 2.25
1.79 1.76 1.76 1.75 1.77 1.73 1.70 1.84 1.91 2.00 1.91 1.95 1.97 1.96 1.97 1.90 1.88 1.87 1.90 1.95 2.05 2.16 2.13 2.10 2.07 2.08 2.06 2.04 2.09 2.08 2.14 2.28 2.29 2.38 2.44 2.41 2.36 2.30 2.37 2.36 2.31 2.30 2.30
1.84 1.77 1.72 1.66 1.70 1.69 1.75 1.86 1.85 1.88 1.89 1.98 1.86 1.95 1.95 1.95 1.97 1.97 2.07 2.09 2.09 2.09 2.12 2.09 2.03 1.98 2.00 2.03 2.06 2.08 2.10 2.19 2.22 2.26 2.30 2.31 2.42 2.37 2.36 2.43 2.37 2.35 2.32
1.91 1.86 1.78 1.66 1.64 1.60 1.76 1.85 1.80 1.85 1.90 1.88 1.88 2.01 2.03 1.98 2.02 2.08 2.13 2.06 2.00 2.09 2.15 2.12 2.01 1.90 1.84 1.89 2.06 2.16 2.15 2.16 2.14 2.11 2.10 2.26 2.28 2.30 2.34 2.33 2.36 2.35 2.38
1.95 1.98 1.91 1.78 1.65 1.61 1.77 1.89 1.86 1.99 2.06 1.97 1.99 2.01 2.06 2.07 2.09 2.09 2.10 2.07 2.01 1.92 1.93 1.95 1.92 1.95 1.83 1.81 1.93 2.03 2.11 2.07 1.97 1.98 2.16 2.22 2.25 2.27 2.37 2.40 2.32 2.32 2.34
2.08 2.03 1.93 1.74 1.59 1.63 1.77 1.90 2.04 2.05 2.09 2.06 1.97 1.95 2.05 2.04 2.03 1.95 1.99 1.92 1.91 1.93 1.90 1.88 1.84 1.82 1.79 1.81 1.91 1.93 1.80 1.81 1.93 2.00 1.92 1.89 2.02 2.20 2.31 2.37 2.32 2.30 2.21
2.17 2.09 1.91 1.61 1.54 1.58 1.77 2.09 2.07 1.99 2.02 2.16 1.93 1.88 1.69 1.86 1.99 2.01 1.94 1.80 1.76 1.76 1.73 1.76 1.83 1.81 1.89 2.01 1.99 1.83 1.83 1.85 1.85 1.80 1.74 1.79 1.92 2.06 2.15 2.09 2.15 2.17 2.13
2.07 2.00 1.86 1.68 1.65 1.78 1.99 2.09 2.12 2.09 1.97 2.12 2.11 1.87 1.66 1.56 1.71 1.76 1.62 1.62 1.66 1.65 1.64 1.68 1.77 1.95 2.00 2.09 2.03 1.90 1.86 1.84 1.79 1.75 1.70 1.69 1.69 1.81 1.94 1.98 2.01 2.04 2.07
2.03 1.97 1.81 1.80 1.83 2.08 2.12 2.16 2.21 2.14 2.13 1.88 2.04 2.11 2.05 1.92 1.42 1.16 1.44 1.50 1.65 1.54 1.55 1.55 1.73 1.83 1.89 1.95 2.01 1.82 1.82 1.81 1.76 1.69 1.65 1.64 1.63 1.67 1.72 1.77 1.90 1.98 2.01
2.06 1.97 1.88 2.01 2.15 2.23 2.22 2.14 2.07 1.87 1.83 1.86 1.88 1.86 1.86 1.72 1.54 1.28 1.06 1.27 1.47 1.59 1.54 1.59 1.67 1.73 1.88 1.94 1.77 1.74 1.72 1.65 1.63 1.62 1.60 1.63 1.66 1.67 1.66 1.69 1.69 1.72 1.83
1.99 1.96 2.09 2.21 2.27 2.23 2.13 2.10 1.91 1.77 1.70 1.78 1.91 1.88 1.66 1.39 1.30 1.23 1.14 1.19 1.19 1.39 1.44 1.53 1.58 1.68 1.74 1.69 1.68 1.63 1.59 1.55 1.53 1.51 1.51 1.52 1.55 1.60 1.61 1.62 1.62 1.58 1.64
2.02 2.11 2.22 2.17 2.21 2.23 2.04 1.84 1.71 1.69 1.67 1.61 1.57 1.50 1.50 1.37 1.31 1.23 1.22 1.25 1.10 1.29 1.33 1.53 1.50 1.55 1.59 1.65 1.57 1.55 1.48 1.47 1.44 1.44 1.48 1.47 1.47 1.49 1.52 1.52 1.52 1.52 1.56
2.07 2.14 2.15 2.22 2.22 1.98 1.77 1.73 1.72 1.57 1.48 1.45 1.42 1.38 1.32 1.29 1.31 1.30 1.30 1.18 1.05 1.15 1.33 1.29 1.48 1.46 1.53 1.51 1.49 1.47 1.41 1.41 1.41 1.40 1.39 1.38 1.37 1.33 1.29 1.31 1.39 1.42 1.50
2.10 2.20 2.21 2.02 1.88 1.78 1.77 1.65 1.46 1.40 1.40 1.37 1.31 1.26 1.23 1.28 1.37 1.39 1.36 1.26 1.09 0.94 1.08 1.19 1.15 1.30 1.37 1.37 1.39 1.38 1.33 1.25 1.25 1.19 1.16 1.17 1.15 1.15 1.14 1.13 1.20 1.30 1.37
2.09 2.01 1.91 1.84 1.78 1.62 1.47 1.37 1.28 1.28 1.21 1.18 1.17 1.18 1.21 1.19 1.14 1.10 1.06 1.02 1.00 0.92 0.85 1.03 1.00 1.03 1.08 1.07 1.09 1.15 1.10 1.09 0.98 0.99 1.00 1.04 1.04 1.02 1.01 0.99 1.01 1.12 1.18
1.91 1.84 1.81 1.69 1.46 1.32 1.29 1.26 1.21 1.17 1.09 1.06 1.03 0.94 0.87 0.87 0.82 0.83 0.87 0.86 0.85 0.89 0.82 0.90 0.92 0.96 0.98 0.99 1.02 1.06 1.07 1.06 0.98 0.93 0.95 0.96 0.98 0.97 0.95 0.96 0.97 0.98 1.03
1.82 1.77 1.59 1.30 1.26 1.26 1.25 1.18 1.07 1.04 0.93 0.86 0.81 0.78 0.75 0.79 0.75 0.78 0.78 0.76 0.79 0.82 0.86 0.75 0.79 0.84 0.76 0.83 0.86 0.91 0.94 0.99 1.02 0.96 0.93 0.94 0.97 0.96 0.93 0.92 0.91 0.91 0.93
1.67 1.51 1.24 1.21 1.21 1.19 1.10 1.05 0.95 0.88 0.84 0.78 0.75 0.74 0.73 0.72 0.67 0.69 0.70 0.70 0.69 0.69 0.69 0.66 0.62 0.67 0.66 0.68 0.66 0.80 0.86 0.89 0.88 1.04 0.88 0.84 0.89 0.87 0.88 0.84 0.83 0.85 0.87
1.49 1.19 1.20 1.19 1.14 1.06 0.98 0.90 0.86 0.82 0.80 0.80 0.81 0.78 0.75 0.72 0.68 0.64 0.63 0.61 0.60 0.60 0.60 0.58 0.57 0.57 0.60 0.64 0.66 0.59 0.63 0.84 0.69 0.76 0.83 0.77 0.90 0.99 0.83 0.74 0.67 0.66 0.69
1.20 1.18 1.15 1.10 1.01 0.88 0.81 0.82 0.82 0.81 0.81 0.81 0.81 0.77 0.72 0.66 0.64 0.70 0.67 0.64 0.64 0.60 0.59 0.59 0.59 0.62 0.63 0.63 0.59 0.66 0.63 0.66 0.79 0.76 0.71 0.82 0.78 0.88 0.88 0.74 0.67 0.66 0.66
1.13 1.14 1.07 0.99 0.83 0.73 0.74 0.80 0.86 0.82 0.81 0.76 0.73 0.75 0.77 0.75 0.70 0.65 0.62 0.62 0.64 0.68 0.64 0.70 0.66 0.67 0.70 0.70 0.71 0.71 0.64 0.63 0.58 0.79 0.71 0.72 0.79 0.79 0.82 0.80 0.69 0.68 0.66
1.10 1.05 0.97 0.84 0.75 0.71 0.73 0.76 0.79 0.74 0.64 0.64 0.72 0.74 0.73 0.76 0.83 0.81 0.72 0.71 0.65 0.64 0.65 0.68 0.63 0.65 0.68 0.69 0.69 0.68 0.66 0.67 0.68 0.80 0.73 0.69 0.75 0.72 0.77 0.89 0.79 0.73 0.69
1.01 0.93 0.84 0.81 0.74 0.67 0.71 0.71 0.66 0.64 0.67 0.70 0.75 0.76 0.73 0.74 0.81 0.81 0.72 0.68 0.66 0.58 0.57 0.64 0.65 0.64 0.63 0.65 0.67 0.69 0.71 0.67 0.69 0.73 0.78 0.53 0.71 0.71 0.73 0.84 0.86 0.79 0.73
0.91 0.84 0.82 0.72 0.63 0.63 0.66 0.64 0.67 0.68 0.69 0.72 0.75 0.76 0.73 0.67 0.63 0.66 0.70 0.65 0.64 0.63 0.66 0.62 0.63 0.65 0.66 0.63 0.61 0.64 0.58 0.57 0.55 0.62 0.78 0.54 0.63 0.66 0.70 0.76 0.84 0.79 0.77
0.86 0.83 0.75 0.73 0.68 0.62 0.64 0.65 0.73 0.72 0.70 0.70 0.75 0.72 0.72 0.68 0.64 0.62 0.66 0.63 0.59 0.60 0.63 0.71 0.74 0.75 0.75 0.70 0.66 0.67 0.61 0.53 0.52 0.49 0.65 0.50 0.60 0.64 0.55 0.69 0.68 0.76 0.74

GFSMA_prec_pwat_339.txt.gz
Precipitable_Water
1.62 1.55 1.62 1.67 1.67 1.78 1.72 1.69 1.71 1.77 1.97 2.09 2.03 2.05 2.18 2.07 2.07 1.89 1.88 2.19 2.17 2.12 2.18 2.22 2.28 2.40 2.32 2.16 2.18 2.25 2.38 2.35 2.34 2.38 2.32 2.32 2.32 2.34 2.33 2.28 2.31 2.28 2.16
1.59 1.66 1.70 1.84 1.75 1.72 1.77 1.68 1.79 2.04 1.90 1.98 1.98 1.94 1.92 1.97 1.87 1.87 1.90 1.99 2.13 2.18 2.19 2.15 2.10 2.12 2.16 2.10 2.11 2.17 2.24 2.27 2.38 2.34 2.35 2.38 2.30 2.22 2.20 2.25 2.29 2.33 2.27
1.67 1.80 1.90 1.85 1.81 1.75 1.72 1.84 1.90 1.98 1.92 2.00 1.96 1.97 2.05 1.94 2.07 2.04 2.16 2.12 2.21 2.19 2.13 2.06 2.02 2.00 1.98 1.94 2.04 2.18 2.18 2.18 2.24 2.23 2.27 2.32 2.28 2.25 2.22 2.28 2.33 2.33 2.34
1.85 1.72 1.78 1.79 1.76 1.75 1.67 1.87 1.81 1.80 1.94 1.88 1.89 2.01 2.10 2.17 2.08 2.16 2.16 2.14 2.05 2.06 2.44 2.15 2.06 1.98 1.92 1.88 1.90 2.03 2.18 2.19 2.21 2.20 2.13 2.17 2.34 2.34 2.29 2.33 2.34 2.37 2.38
1.90 1.83 1.80 1.77 1.71 1.64 1.59 1.80 1.81 1.83 1.95 1.91 2.04 2.06 2.10 2.15 2.17 2.23 2.25 2.13 2.07 2.00 2.03 2.09 2.00 1.97 1.91 1.85 1.86 1.95 2.05 2.09 2.04 2.00 2.14 2.18 2.17 2.21 2.26 2.36 2.43 2.37 2.37
1.95 1.88 1.89 1.84 1.75 1.59 1.63 1.84 1.85 2.01 2.12 2.08 2.09 2.02 2.10 2.10 2.13 2.02 1.97 2.06 2.00 2.04 1.97 1.99 1.98 2.22 1.93 1.77 1.83 1.90 1.90 1.86 1.90 1.89 1.87 1.90 1.99 2.07 2.18 2.28 2.35 2.31 2.30
1.99 1.99 2.02 1.88 1.70 1.56 1.64 1.78 1.99 1.97 2.04 2.20 2.01 2.05 2.12 2.08 2.01 2.11 2.00 1.88 1.81 1.80 1.77 1.81 1.83 1.82 1.91 2.23 2.14 1.79 1.85 1.85 1.84 1.79 1.76 1.79 1.81 1.93 2.05 2.09 2.13 2.13 2.19
2.08 2.08 2.06 1.88 1.65 1.54 1.62 1.93 2.16 2.09 2.10 2.20 1.98 1.93 1.66 1.86 2.03 2.01 1.70 1.57 1.78 1.80 1.77 1.78 1.74 2.00 2.09 2.16 2.09 1.87 1.91 1.92 1.83 1.78 1.72 1.71 1.67 1.68 1.84 1.96 1.99 2.02 2.04
2.20 2.16 2.04 1.91 1.70 1.74 1.83 2.08 2.20 2.19 2.04 2.11 2.15 1.92 1.62 1.56 1.61 1.64 1.67 1.68 1.63 1.69 1.58 1.79 1.98 2.02 1.93 2.09 2.06 1.86 1.82 1.84 1.81 1.77 1.72 1.65 1.66 1.67 1.68 1.77 1.87 1.90 1.94
2.13 1.99 1.93 1.88 1.78 1.93 2.10 2.24 2.27 2.16 1.93 1.71 1.84 2.07 2.07 1.87 1.48 1.19 1.42 1.54 1.65 1.67 1.52 1.67 1.76 1.81 1.96 2.02 1.81 1.70 1.69 1.66 1.66 1.67 1.64 1.64 1.67 1.67 1.70 1.71 1.71 1.74 1.85
2.14 2.00 1.93 1.84 1.94 2.15 2.33 2.24 2.10 1.90 1.75 1.70 1.88 1.92 1.89 1.79 1.62 1.32 1.09 1.34 1.67 1.55 1.66 1.59 1.70 1.75 1.85 1.79 1.65 1.63 1.60 1.57 1.56 1.54 1.52 1.56 1.60 1.65 1.69 1.67 1.69 1.76 1.78
2.05 2.07 1.99 2.04 2.19 2.28 2.21 2.16 1.96 1.73 1.68 1.75 1.78 1.81 1.65 1.44 1.31 1.25 1.14 1.22 1.37 1.44 1.53 1.53 1.62 1.63 1.74 1.76 1.60 1.53 1.50 1.49 1.47 1.46 1.46 1.47 1.49 1.51 1.54 1.52 1.52 1.54 1.63
2.03 2.02 2.17 2.22 2.17 2.30 2.17 1.96 1.75 1.78 1.70 1.58 1.53 1.48 1.49 1.37 1.27 1.26 1.23 1.32 1.20 1.41 1.44 1.66 1.55 1.66 1.63 1.57 1.46 1.44 1.42 1.41 1.38 1.36 1.33 1.30 1.32 1.33 1.34 1.35 1.36 1.40 1.45
2.12 2.17 2.22 2.24 2.31 2.25 1.95 1.78 1.78 1.66 1.54 1.47 1.38 1.30 1.27 1.29 1.29 1.29 1.30 1.19 1.14 1.41 1.50 1.41 1.44 1.44 1.40 1.36 1.36 1.31 1.22 1.17 1.13 1.09 1.05 1.05 1.10 1.13 1.11 1.10 1.08 1.17 1.29
2.15 2.25 2.32 2.29 2.17 1.90 1.85 1.67 1.46 1.31 1.31 1.25 1.23 1.20 1.25 1.32 1.33 1.30 1.26 1.16 0.99 1.04 1.09 1.21 1.08 1.15 1.12 1.12 1.12 1.27 1.02 0.97 0.90 0.92 0.92 0.94 0.94 0.94 0.96 0.97 0.97 1.00 1.08
2.27 2.32 2.16 2.02 1.82 1.70 1.47 1.30 1.26 1.21 1.18 1.17 1.15 1.11 1.11 1.09 1.01 0.97 0.99 0.99 0.92 0.83 0.80 1.00 0.94 0.96 0.96 1.10 1.03 1.14 1.11 1.05 0.93 0.89 0.90 0.89 0.88 0.87 0.86 0.86 0.86 0.89 0.93
2.11 2.00 1.84 1.66 1.54 1.30 1.25 1.20 1.17 1.16 1.10 1.03 0.97 0.89 0.82 0.82 0.84 0.84 0.85 0.91 0.89 0.89 0.92 0.91 1.08 0.98 0.94 0.88 0.96 1.10 1.20 1.14 1.02 0.89 0.83 0.85 0.83 0.84 0.86 0.85 0.85 0.84 0.83
1.93 1.69 1.62 1.44 1.22 1.20 1.22 1.13 1.06 1.06 0.93 0.85 0.81 0.79 0.77 0.82 0.78 0.85 0.85 0.78 0.77 0.84 0.91 0.76 0.75 0.81 0.72 0.80 0.88 0.90 1.01 0.91 1.11 0.96 0.83 0.80 0.83 0.80 0.70 0.68 0.70 0.73 0.77
1.76 1.58 1.32 1.16 1.18 1.19 1.08 1.02 0.97 0.91 0.85 0.82 0.81 0.79 0.79 0.76 0.69 0.68 0.70 0.72 0.70 0.69 0.71 0.70 0.68 0.69 0.72 0.72 0.72 0.80 0.88 0.86 0.89 0.95 0.95 0.96 0.93 0.91 0.78 0.62 0.61 0.62 0.63
1.50 1.29 1.20 1.19 1.13 1.06 0.98 0.94 0.92 0.89 0.86 0.84 0.82 0.78 0.77 0.75 0.74 0.71 0.69 0.66 0.69 0.68 0.65 0.65 0.64 0.68 0.71 0.74 0.74 0.69 0.69 0.85 0.84 0.76 0.81 0.93 0.98 0.99 0.92 0.78 0.71 0.64 0.65
1.43 1.20 1.15 1.11 1.04 0.91 0.91 0.89 0.90 0.86 0.84 0.81 0.76 0.66 0.59 0.61 0.64 0.70 0.70 0.71 0.74 0.74 0.74 0.70 0.70 0.74 0.70 0.70 0.65 0.77 0.66 0.70 0.89 0.82 0.76 0.87 0.90 0.99 0.95 0.85 0.81 0.77 0.71
1.18 1.15 1.08 0.99 0.87 0.88 0.84 0.85 0.92 0.86 0.81 0.80 0.74 0.73 0.73 0.71 0.62 0.61 0.59 0.55 0.54 0.61 0.62 0.66 0.65 0.71 0.69 0.66 0.70 0.75 0.67 0.70 0.70 0.91 0.73 0.79 0.83 0.78 0.89 0.87 0.84 0.82 0.75
1.11 1.05 1.03 0.94 0.78 0.70 0.75 0.81 0.83 0.78 0.73 0.81 0.80 0.78 0.74 0.80 0.90 0.81 0.73 0.71 0.60 0.56 0.62 0.67 0.64 0.62 0.60 0.62 0.68 0.70 0.67 0.72 0.72 0.82 0.78 0.55 0.73 0.75 0.83 0.85 0.86 0.81 0.75
1.06 1.03 0.92 0.84 0.73 0.69 0.70 0.72 0.72 0.78 0.81 0.81 0.82 0.82 0.80 0.81 0.78 0.79 0.76 0.71 0.66 0.57 0.57 0.65 0.64 0.59 0.59 0.59 0.64 0.72 0.67 0.69 0.73 0.84 0.81 0.50 0.64 0.67 0.76 0.86 0.86 0.81 0.78
1.03 0.94 0.89 0.79 0.72 0.66 0.69 0.66 0.79 0.76 0.75 0.78 0.80 0.79 0.71 0.64 0.61 0.67 0.73 0.69 0.68 0.70 0.72 0.71 0.70 0.70 0.71 0.68 0.66 0.66 0.57 0.56 0.54 0.65 0.69 0.49 0.59 0.61 0.66 0.75 0.91 0.84 0.81
0.95 0.94 0.86 0.81 0.73 0.68 0.67 0.73 0.79 0.77 0.75 0.73 0.71 0.74 0.71 0.64 0.60 0.67 0.75 0.74 0.70 0.68 0.72 0.80 0.84 0.83 0.82 0.78 0.72 0.69 0.64 0.57 0.54 0.53 0.62 0.54 0.58 0.60 0.55 0.65 0.77 0.81 0.79

GFSMA_prec_pwat_342.txt.gz
Precipitable_Water
1.58 1.49 1.65 1.66 1.74 1.89 1.85 1.91 1.75 1.84 1.84 1.99 1.99 1.87 1.79 1.91 1.86 1.96 1.93 2.13 2.37 2.27 2.27 2.19 2.16 2.13 2.14 2.03 1.98 2.07 2.20 2.29 2.29 2.30 2.33 2.40 2.22 2.18 2.23 2.30 2.30 2.29 2.22
1.58 1.70 1.59 1.78 1.77 1.83 1.65 1.72 1.81 1.88 1.91 1.95 1.90 1.96 1.95 1.93 1.89 2.10 2.09 2.31 2.17 2.19 2.26 2.18 2.06 2.02 2.05 2.00 2.03 2.10 2.25 2.28 2.31 2.32 2.30 2.33 2.24 2.29 2.24 2.27 2.30 2.32 2.33
1.67 1.71 1.77 1.85 2.08 1.70 1.87 1.84 1.78 1.82 1.93 1.89 1.94 1.97 2.10 2.44 2.19 2.19 2.34 2.18 2.21 2.31 2.47 1.80 2.09 2.00 2.01 1.93 1.97 2.00 2.14 2.20 2.24 2.17 2.15 2.24 2.31 2.28 2.28 2.31 2.31 2.33 2.35
1.69 1.68 1.85 1.91 1.78 1.68 1.79 1.66 1.85 1.84 1.90 1.91 1.93 2.08 2.18 2.35 2.25 2.30 2.31 2.20 2.00 2.16 2.12 1.99 2.09 2.12 2.16 1.98 1.85 1.92 1.96 1.97 2.01 2.02 2.09 2.06 2.10 2.18 2.30 2.36 2.34 2.37 2.39
1.80 1.69 1.81 1.83 1.68 1.60 1.66 1.72 1.82 1.83 1.88 1.99 2.05 2.11 2.23 2.39 2.19 2.28 2.15 2.04 1.91 2.09 2.42 1.94 2.06 2.14 2.06 2.12 1.95 1.95 1.94 1.93 1.92 1.94 1.91 1.96 1.98 2.08 2.18 2.27 2.33 2.33 2.37
1.92 1.71 1.83 1.81 1.69 1.61 1.53 1.67 1.71 2.01 2.07 2.12 2.07 2.14 2.40 2.55 2.01 2.07 1.84 1.72 1.75 1.70 1.71 1.69 2.00 2.37 2.12 1.83 2.04 1.93 1.93 1.90 1.85 1.83 1.82 1.82 1.79 1.89 2.04 2.08 2.13 2.11 2.19
1.98 1.87 1.88 1.98 1.74 1.55 1.57 1.67 1.92 1.99 2.07 2.23 2.00 1.99 1.94 2.08 2.06 1.59 1.82 1.68 1.65 1.67 1.64 1.78 1.88 2.05 1.93 1.97 2.05 1.92 1.95 1.92 1.84 1.77 1.72 1.70 1.68 1.65 1.81 1.94 1.97 1.97 1.97
1.92 2.00 2.00 1.97 1.75 1.57 1.59 1.86 2.07 2.08 2.17 2.16 1.89 1.87 1.63 1.82 1.88 1.69 1.66 1.98 1.87 1.73 1.71 1.94 2.29 2.11 2.10 2.15 2.06 1.80 1.81 1.78 1.75 1.75 1.71 1.63 1.65 1.65 1.65 1.74 1.85 1.86 1.92
1.95 2.02 2.05 1.99 1.77 1.70 1.79 2.03 2.17 2.20 1.94 1.89 1.95 1.87 1.77 1.45 1.54 1.66 1.70 1.64 1.68 1.75 1.67 1.75 1.75 1.89 2.00 1.88 1.78 1.66 1.64 1.65 1.65 1.65 1.62 1.61 1.61 1.65 1.68 1.68 1.71 1.78 1.83
1.96 2.14 2.08 1.91 1.81 1.76 1.95 2.20 2.28 2.10 1.87 1.64 1.87 1.99 1.98 1.84 1.36 1.08 1.53 2.07 1.63 1.65 1.55 1.56 1.55 1.68 1.72 1.74 1.67 1.62 1.59 1.56 1.55 1.53 1.49 1.49 1.53 1.61 1.65 1.68 1.66 1.71 1.73
2.14 2.13 1.95 1.84 1.82 1.95 2.28 2.32 2.16 1.93 1.76 1.68 1.65 1.79 1.77 1.65 1.53 1.26 1.23 1.42 1.56 1.63 1.62 1.57 1.51 1.54 1.60 1.67 1.59 1.50 1.46 1.42 1.40 1.40 1.40 1.42 1.43 1.45 1.46 1.47 1.49 1.52 1.60
2.03 2.10 1.93 1.91 2.00 2.19 2.30 2.26 2.07 1.82 1.67 1.70 1.60 1.56 1.49 1.35 1.23 1.14 1.15 1.31 1.34 1.63 1.58 1.58 1.58 1.52 1.52 1.49 1.41 1.37 1.32 1.31 1.30 1.23 1.22 1.19 1.22 1.27 1.30 1.32 1.33 1.33 1.37
1.93 2.08 2.07 2.11 2.22 2.21 2.37 2.11 1.79 1.72 1.65 1.44 1.33 1.34 1.37 1.33 1.19 1.17 1.12 1.24 1.27 1.43 1.61 1.65 1.59 1.49 1.43 1.31 1.22 1.11 1.05 1.01 1.02 1.03 1.01 1.01 1.03 1.08 1.08 1.08 1.09 1.13 1.23
2.05 2.27 2.15 2.24 2.23 2.37 2.17 1.90 1.78 1.64 1.41 1.30 1.27 1.17 1.32 1.32 1.24 1.24 1.18 1.16 1.08 1.28 1.36 1.33 1.38 1.30 1.20 1.11 1.11 1.09 0.96 0.92 0.85 0.86 0.87 0.91 0.91 0.92 0.94 0.96 0.98 1.00 1.04
2.21 2.10 2.19 2.28 2.29 2.21 1.96 1.75 1.36 1.18 1.21 1.19 1.16 1.18 1.20 1.21 1.21 1.18 1.10 1.06 1.03 0.92 1.00 1.07 0.95 0.92 1.13 1.16 1.10 1.11 1.04 1.00 0.90 0.79 0.82 0.82 0.83 0.84 0.85 0.85 0.86 0.89 0.92
2.21 2.34 2.35 2.30 2.18 1.95 1.64 1.36 1.19 1.17 1.11 1.08 1.02 1.03 1.03 1.00 0.94 0.95 1.01 0.97 0.78 0.92 0.87 1.03 0.94 0.91 0.95 1.06 1.09 1.12 1.10 1.09 0.95 0.84 0.72 0.73 0.74 0.75 0.77 0.79 0.80 0.81 0.83
2.32 2.27 2.21 2.03 1.67 1.44 1.23 1.18 1.14 1.12 1.01 0.93 0.89 0.85 0.82 0.84 0.86 0.82 0.89 0.92 0.86 0.98 0.89 0.96 0.91 0.89 0.75 0.76 1.01 1.09 1.19 1.11 0.99 0.89 0.83 0.85 0.78 0.74 0.67 0.59 0.60 0.62 0.64
2.26 2.22 1.79 1.54 1.29 1.17 1.19 1.15 1.09 0.99 0.83 0.76 0.77 0.74 0.72 0.73 0.77 0.85 0.81 0.70 0.83 0.91 0.87 0.70 0.80 0.68 0.66 0.80 0.87 0.96 1.12 1.01 0.96 0.93 0.93 0.94 0.87 0.79 0.72 0.71 0.68 0.59 0.57
1.92 1.73 1.51 1.21 1.10 1.13 1.11 1.04 0.95 0.84 0.79 0.78 0.80 0.77 0.70 0.68 0.67 0.71 0.75 0.71 0.67 0.74 0.72 0.69 0.63 0.75 0.74 0.76 0.79 0.88 0.94 0.94 1.01 0.96 0.94 1.00 0.93 0.86 0.82 0.79 0.75 0.70 0.67
1.61 1.52 1.26 1.12 1.14 1.09 1.03 0.93 0.84 0.83 0.83 0.81 0.77 0.74 0.70 0.68 0.70 0.71 0.70 0.71 0.77 0.71 0.70 0.67 0.72 0.74 0.80 0.79 0.81 0.75 0.73 0.88 0.89 0.87 0.94 1.02 1.00 0.91 0.86 0.86 0.85 0.79 0.73
1.51 1.38 1.11 1.13 1.06 1.00 0.96 0.89 0.90 0.86 0.83 0.73 0.60 0.58 0.59 0.65 0.68 0.58 0.61 0.68 0.74 0.74 0.75 0.75 0.79 0.78 0.68 0.67 0.66 0.77 0.64 0.78 0.88 0.84 0.80 0.97 0.98 0.91 0.91 0.87 0.83 0.77 0.72
1.46 1.09 1.09 0.98 1.00 0.97 0.92 0.91 0.92 0.87 0.83 0.68 0.61 0.70 0.70 0.67 0.62 0.57 0.56 0.49 0.56 0.59 0.72 0.72 0.72 0.66 0.59 0.58 0.69 0.70 0.67 0.69 0.67 0.88 0.75 0.60 0.78 0.90 0.89 0.86 0.84 0.79 0.76
1.22 1.08 1.03 1.01 0.91 0.91 0.84 0.84 0.86 0.83 0.83 0.82 0.82 0.86 0.81 0.84 0.84 0.76 0.73 0.65 0.55 0.62 0.69 0.66 0.57 0.56 0.49 0.53 0.66 0.64 0.68 0.68 0.73 0.86 0.78 0.54 0.64 0.70 0.83 0.83 0.84 0.81 0.75
1.10 1.06 1.04 0.95 0.79 0.72 0.73 0.73 0.77 0.77 0.84 0.85 0.83 0.86 0.82 0.78 0.78 0.79 0.84 0.75 0.67 0.62 0.62 0.63 0.62 0.61 0.64 0.64 0.66 0.69 0.66 0.71 0.84 0.76 0.67 0.41 0.61 0.61 0.75 0.83 0.86 0.80 0.77
1.05 1.07 1.00 0.88 0.70 0.66 0.69 0.70 0.80 0.81 0.78 0.77 0.78 0.76 0.68 0.58 0.63 0.74 0.79 0.74 0.72 0.71 0.76 0.76 0.76 0.75 0.74 0.70 0.70 0.64 0.61 0.59 0.56 0.63 0.64 0.55 0.58 0.57 0.66 0.81 0.84 0.82 0.79
1.04 1.01 0.97 0.86 0.72 0.61 0.66 0.75 0.83 0.85 0.74 0.74 0.74 0.71 0.69 0.63 0.61 0.71 0.76 0.77 0.73 0.71 0.79 0.80 0.82 0.82 0.82 0.80 0.78 0.72 0.64 0.58 0.55 0.55 0.58 0.52 0.56 0.57 0.47 0.63 0.80 0.78 0.77

GFSMA_prec_pwat_345.txt.gz
Precipitable_Water
1.50 1.59 1.74 1.78 1.83 2.04 1.91 1.92 1.83 1.91 1.91 2.02 1.98 2.01 2.10 2.11 2.15 2.28 2.26 2.27 2.21 2.23 2.30 2.16 2.16 2.15 2.10 2.05 2.04 2.06 2.21 2.33 2.37 2.32 2.26 2.28 2.20 2.19 2.21 2.26 2.30 2.33 2.32
1.62 1.52 1.57 1.63 1.71 1.79 1.91 1.76 1.73 1.87 1.83 1.98 2.02 2.13 2.28 2.28 2.05 2.34 2.40 2.37 2.38 2.33 2.27 2.07 2.06 2.04 2.03 1.99 1.98 2.02 2.13 2.23 2.18 2.13 2.19 2.22 2.27 2.24 2.22 2.29 2.31 2.34 2.34
1.62 1.55 1.70 1.78 1.83 1.66 1.66 1.83 1.78 1.84 1.88 2.00 1.96 2.20 2.38 2.36 2.33 2.27 2.05 2.21 2.24 2.29 2.29 2.00 1.98 1.92 2.02 1.99 1.97 2.03 2.11 2.16 2.15 2.18 2.14 2.10 2.12 2.17 2.30 2.34 2.36 2.39 2.33
1.72 1.66 1.71 1.81 1.84 1.60 1.64 1.63 1.69 1.73 1.89 1.94 2.08 2.39 2.48 2.22 2.52 2.24 2.17 2.05 2.04 2.15 1.96 1.85 2.04 2.05 1.95 2.03 2.02 1.99 1.94 1.96 1.96 1.93 1.93 1.93 1.96 2.10 2.19 2.28 2.34 2.50 2.45
1.83 1.75 1.80 1.79 1.70 1.54 1.50 1.50 1.65 1.76 1.95 2.11 2.14 2.29 2.24 2.01 2.23 2.10 1.95 1.94 1.99 2.10 1.98 2.12 2.08 2.03 2.12 2.01 2.03 1.93 1.88 1.85 1.83 1.85 1.84 1.79 1.74 1.84 1.97 2.02 2.04 2.15 2.42
1.92 1.81 1.83 1.80 1.68 1.55 1.45 1.47 1.65 1.95 2.02 2.15 2.14 2.08 2.17 2.16 2.12 1.78 2.00 2.00 1.96 1.86 1.83 1.78 1.99 1.86 1.98 1.85 1.75 1.87 1.87 1.82 1.76 1.72 1.65 1.64 1.62 1.60 1.75 1.86 1.88 1.92 1.96
1.94 1.79 1.81 1.83 1.86 1.58 1.48 1.57 1.87 1.95 2.07 2.22 1.97 1.96 2.06 2.05 1.89 1.83 1.93 2.04 1.98 1.82 1.83 1.95 1.94 1.79 2.00 1.90 1.74 1.68 1.70 1.70 1.68 1.67 1.60 1.57 1.58 1.58 1.59 1.66 1.77 1.84 1.87
1.96 1.84 1.88 1.94 1.88 1.54 1.54 1.77 1.97 2.05 2.14 1.99 1.75 1.79 1.67 1.69 1.89 1.94 1.89 1.86 1.80 1.87 1.68 1.65 1.67 1.74 1.80 1.78 1.71 1.60 1.60 1.61 1.62 1.59 1.53 1.50 1.54 1.57 1.58 1.58 1.60 1.69 1.77
1.84 1.81 2.01 1.99 1.88 1.70 1.65 1.89 2.11 2.15 1.80 1.80 1.86 1.76 1.47 1.35 1.58 1.76 1.76 2.07 1.89 1.67 1.66 1.58 1.54 1.53 1.57 1.64 1.64 1.57 1.53 1.50 1.49 1.49 1.46 1.44 1.46 1.47 1.54 1.55 1.54 1.57 1.64
1.77 1.78 1.98 2.04 1.81 1.76 1.77 2.07 2.29 2.07 1.85 1.54 1.66 1.76 1.84 1.65 1.28 1.18 1.57 1.64 1.68 1.66 1.64 1.59 1.57 1.49 1.47 1.55 1.60 1.50 1.44 1.41 1.41 1.39 1.37 1.37 1.38 1.38 1.38 1.39 1.39 1.41 1.50
2.00 1.93 2.01 1.95 1.74 1.81 2.04 2.30 2.14 1.99 1.77 1.56 1.51 1.47 1.47 1.53 1.48 1.27 1.18 1.39 1.60 1.66 1.68 1.62 1.57 1.46 1.41 1.43 1.37 1.32 1.30 1.26 1.27 1.23 1.17 1.18 1.19 1.23 1.27 1.30 1.32 1.31 1.33
2.08 2.11 2.03 1.88 1.88 2.00 2.20 2.24 2.10 1.80 1.62 1.57 1.45 1.36 1.31 1.25 1.12 1.07 1.12 1.24 1.30 1.46 1.63 1.65 1.56 1.47 1.35 1.18 1.13 1.05 0.99 0.96 1.01 1.02 1.00 1.00 1.04 1.08 1.13 1.13 1.13 1.16 1.21
1.94 2.03 2.07 1.96 2.01 2.17 2.26 2.22 1.87 1.69 1.60 1.36 1.27 1.22 1.24 1.23 1.19 1.15 1.17 1.18 1.22 1.39 1.40 1.53 1.47 1.31 1.15 1.00 1.01 0.99 0.94 0.83 0.79 0.81 0.83 0.84 0.87 0.91 0.93 0.96 0.99 1.01 1.04
1.99 2.05 2.12 2.14 2.22 2.26 2.32 2.05 1.76 1.59 1.33 1.24 1.18 1.22 1.17 1.17 1.17 1.16 1.13 1.17 1.10 1.15 1.26 1.15 1.27 1.12 1.10 1.08 1.03 1.03 0.98 0.94 0.81 0.76 0.78 0.80 0.82 0.84 0.84 0.85 0.87 0.89 0.92
2.02 2.16 2.24 2.19 2.26 2.25 2.17 1.82 1.42 1.16 1.17 1.14 1.12 1.14 1.08 1.10 1.06 1.09 1.05 1.07 1.09 0.93 0.94 1.08 0.89 1.06 1.13 1.15 1.09 1.05 1.01 0.95 0.82 0.75 0.73 0.72 0.72 0.71 0.70 0.69 0.73 0.77 0.80
2.08 2.16 2.23 2.27 2.25 2.15 1.85 1.41 1.17 1.12 1.08 1.03 0.97 0.99 0.98 0.93 0.91 0.95 0.98 0.89 0.96 0.98 0.80 0.95 0.87 0.78 1.03 1.09 1.05 1.10 1.07 0.95 0.88 0.83 0.82 0.80 0.75 0.70 0.71 0.67 0.62 0.58 0.58
2.20 2.30 2.34 2.25 2.06 1.67 1.43 1.17 1.13 1.07 0.97 0.90 0.81 0.81 0.82 0.83 0.78 0.84 0.86 0.85 0.91 0.89 0.75 0.85 0.88 0.77 0.83 0.94 0.99 1.09 1.07 0.98 0.97 0.92 0.83 0.82 0.79 0.78 0.78 0.75 0.71 0.67 0.62
2.35 2.35 2.24 1.86 1.53 1.23 1.17 1.09 1.03 0.94 0.84 0.72 0.69 0.66 0.66 0.73 0.74 0.75 0.72 0.73 0.91 0.93 0.81 0.66 0.69 0.69 0.69 0.83 0.98 1.01 1.05 1.00 0.99 0.96 0.89 0.88 0.84 0.79 0.79 0.77 0.73 0.70 0.65
2.38 2.20 1.73 1.42 1.15 1.13 1.12 1.08 0.94 0.84 0.77 0.72 0.69 0.63 0.65 0.69 0.73 0.74 0.68 0.73 0.80 0.80 0.72 0.66 0.67 0.77 0.76 0.82 0.85 0.97 1.06 1.08 1.04 1.01 0.97 0.92 0.85 0.79 0.81 0.83 0.78 0.71 0.68
1.88 1.64 1.51 1.15 1.14 1.11 1.04 0.94 0.83 0.77 0.76 0.74 0.69 0.63 0.61 0.62 0.64 0.65 0.65 0.69 0.73 0.72 0.74 0.73 0.75 0.77 0.77 0.81 0.80 0.75 0.78 0.95 0.92 0.99 0.99 0.98 0.87 0.83 0.81 0.82 0.75 0.72 0.71
1.59 1.54 1.19 1.18 1.16 1.05 0.92 0.87 0.86 0.80 0.64 0.50 0.53 0.58 0.62 0.61 0.53 0.59 0.67 0.73 0.76 0.75 0.77 0.77 0.75 0.76 0.65 0.59 0.68 0.74 0.69 0.83 0.89 0.92 0.86 0.83 0.85 0.87 0.86 0.84 0.79 0.79 0.75
1.54 1.37 1.18 1.13 1.02 1.00 0.89 0.93 0.90 0.80 0.67 0.52 0.54 0.58 0.66 0.63 0.62 0.57 0.55 0.61 0.71 0.76 0.76 0.74 0.66 0.49 0.46 0.59 0.72 0.69 0.71 0.67 0.61 0.85 0.80 0.67 0.84 0.82 0.84 0.83 0.80 0.80 0.74
1.46 1.22 1.10 1.02 0.96 0.95 0.91 0.93 0.91 0.81 0.71 0.75 0.76 0.78 0.77 0.81 0.75 0.70 0.66 0.56 0.60 0.62 0.63 0.54 0.47 0.48 0.51 0.64 0.69 0.65 0.67 0.69 0.65 0.72 0.69 0.55 0.62 0.67 0.79 0.83 0.83 0.78 0.70
1.39 1.15 1.01 0.95 0.91 0.86 0.81 0.89 0.87 0.85 0.82 0.84 0.84 0.86 0.83 0.75 0.77 0.80 0.73 0.66 0.61 0.62 0.65 0.65 0.63 0.67 0.68 0.69 0.69 0.68 0.70 0.74 0.76 0.67 0.66 0.47 0.57 0.58 0.77 0.80 0.82 0.76 0.74
1.35 1.09 1.02 0.93 0.78 0.74 0.77 0.81 0.81 0.77 0.75 0.78 0.78 0.83 0.79 0.68 0.75 0.80 0.80 0.73 0.70 0.73 0.80 0.82 0.82 0.79 0.75 0.76 0.72 0.59 0.62 0.62 0.58 0.57 0.56 0.51 0.53 0.52 0.71 0.70 0.79 0.78 0.71
1.27 1.02 0.96 0.92 0.67 0.69 0.74 0.79 0.78 0.72 0.70 0.71 0.75 0.75 0.62 0.58 0.65 0.78 0.82 0.79 0.70 0.77 0.86 0.89 0.87 0.84 0.81 0.75 0.75 0.68 0.62 0.55 0.53 0.51 0.62 0.56 0.55 0.54 0.50 0.68 0.75 0.70 0.66